Stations météo

réclame
Mon MeteoGroup
Castellon, Espagne (8286): Température de l'air & dewpoint: 18.10.2018 07:00:00 - 24.10.2018 07:00:00 (CEST)Castellon, Espagne (8286): Vitesse du vent: 18.10.2018 07:00:00 - 24.10.2018 07:00:00 (CEST)Castellon, Espagne (8286): Direction du vent: 18.10.2018 07:00:00 - 24.10.2018 07:00:00 (CEST)Castellon, Espagne (8286): reduced air pressure: 18.10.2018 07:00:00 - 24.10.2018 07:00:00 (CEST)Castellon, Espagne (8286): visibility: 18.10.2018 07:00:00 - 24.10.2018 07:00:00 (CEST)Castellon, Espagne (8286): Quantités de précipitations: 18.10.2018 07:00:00 - 24.10.2018 07:00:00 (CEST)
Date & Time tt [°C] td [°C] ff [km/h] ff [knt] dd ppp [hPa] vv [km] rr [mm]
24.10.2018 07:00:00 - - - - - - - -
24.10.2018 06:00:00 14,2 9,6 9 5 WNW 1023,8 20 0,0
24.10.2018 05:00:00 14,8 10,6 13 7 W 1023,6 14 -
24.10.2018 04:00:00 14,8 11,8 11 6 WNW 1024,2 19 0,0
24.10.2018 03:00:00 15,3 13,1 8 4 W 1024,9 9 0,0
24.10.2018 02:00:00 15,6 13,1 9 5 WNW 1025,1 10 -
24.10.2018 01:00:00 15,8 14,2 8 4 WNW 1025,5 12 0,0
24.10.2018 00:00:00 16,0 14,4 9 5 WNW 1026,0 9 0,0
23.10.2018 23:00:00 16,3 14,3 5 3 WNW 1026,1 13 -
23.10.2018 22:00:00 17,0 14,5 4 2 NW 1025,9 17 0,0
23.10.2018 21:00:00 18,2 14,9 2 1 N 1025,9 20 0,0
23.10.2018 20:00:00 18,5 15,0 0 0 N 1025,8 12 -
23.10.2018 19:00:00 19,6 15,0 5 3 SSE 1025,2 20 0,0
23.10.2018 18:00:00 20,7 15,3 5 3 SSE 1025,0 20 0,0
23.10.2018 17:00:00 21,4 14,8 8 4 SSE 1025,1 20 -
23.10.2018 16:00:00 22,0 13,4 5 3 SSE 1025,1 20 0,0
23.10.2018 15:00:00 22,2 11,9 9 5 SE 1025,7 20 0,0
23.10.2018 14:00:00 21,8 11,5 11 6 ESE 1026,1 25 -
23.10.2018 13:00:00 21,6 11,3 9 5 E 1026,4 20 0,0
23.10.2018 12:00:00 20,8 11,7 4 2 ESE 1026,6 20 0,0
23.10.2018 11:00:00 18,0 10,1 2 1 N 1026,8 30 -
23.10.2018 10:00:00 16,0 9,4 5 3 NW 1026,1 20 0,0
23.10.2018 09:00:00 14,3 10,1 9 5 W 1025,4 18 0,0
23.10.2018 08:00:00 14,3 8,7 8 4 WNW 1025,0 25 -
23.10.2018 07:00:00 14,8 9,6 11 6 W 1024,7 20 0,0
23.10.2018 06:00:00 14,7 9,7 5 3 WNW 1024,8 20 0,0
23.10.2018 05:00:00 15,0 11,0 4 2 NW 1024,4 20 -
23.10.2018 04:00:00 15,8 10,8 4 2 WNW 1024,7 20 0,0
23.10.2018 03:00:00 15,8 12,5 4 2 NNW 1024,9 18 0,0
23.10.2018 02:00:00 16,1 14,5 5 3 NW 1024,7 7 -
23.10.2018 01:00:00 16,7 14,7 5 3 NW 1024,6 7 0,0
23.10.2018 00:00:00 17,4 15,2 4 2 NW 1024,8 11 0,0
22.10.2018 23:00:00 18,2 15,6 4 2 NW 1024,5 14 -
22.10.2018 22:00:00 18,7 15,6 4 2 WNW 1023,8 14 0,0
22.10.2018 21:00:00 19,4 15,3 4 2 NNE 1022,9 14 0,0
22.10.2018 20:00:00 19,9 15,7 2 1 NE 1022,4 11 -
22.10.2018 19:00:00 20,6 15,8 4 2 E 1022,1 20 0,0
22.10.2018 18:00:00 21,5 15,8 8 4 E 1021,7 19 0,0
22.10.2018 17:00:00 22,1 15,9 9 5 E 1021,3 18 -
22.10.2018 16:00:00 22,4 16,0 11 6 E 1021,1 18 0,0
22.10.2018 15:00:00 22,8 15,4 13 7 ENE 1021,1 19 0,0
22.10.2018 14:00:00 22,9 16,2 11 6 ENE 1021,3 30 -
22.10.2018 13:00:00 23,1 14,1 9 5 ENE 1021,5 18 0,0
22.10.2018 12:00:00 22,6 16,6 9 5 E 1021,4 19 0,0
22.10.2018 11:00:00 21,1 13,8 8 4 NE 1020,9 40 -
22.10.2018 10:00:00 17,5 13,4 4 2 WNW 1020,4 19 0,0
22.10.2018 09:00:00 16,4 11,3 5 3 NW 1019,2 19 0,0
22.10.2018 08:00:00 16,3 11,7 8 4 WNW 1018,2 40 -
22.10.2018 07:00:00 16,5 12,5 11 6 WNW 1018,2 20 0,0
22.10.2018 06:00:00 16,4 13,3 8 4 WNW 1017,9 20 0,0
22.10.2018 05:00:00 16,8 13,9 8 4 WNW 1018,0 20 -
22.10.2018 04:00:00 17,0 14,6 8 4 WNW 1018,3 13 0,0
22.10.2018 03:00:00 16,9 15,2 8 4 WNW 1018,5 8 0,0
22.10.2018 02:00:00 17,4 15,6 9 5 W 1018,8 7 -
22.10.2018 01:00:00 17,3 15,6 9 5 W 1019,1 9 0,0
22.10.2018 00:00:00 17,8 15,8 4 2 WNW 1019,4 12 0,0
21.10.2018 23:00:00 18,1 16,3 4 2 NW 1019,6 14 -
21.10.2018 22:00:00 18,4 16,0 4 2 W 1019,4 12 0,0
21.10.2018 21:00:00 19,5 17,3 2 1 NW 1019,4 16 0,0
21.10.2018 20:00:00 20,0 17,2 2 1 SSW 1019,3 19 -
21.10.2018 19:00:00 21,0 17,0 4 2 SSE 1019,1 20 0,0
21.10.2018 18:00:00 22,2 16,7 8 4 SE 1019,1 20 0,0
21.10.2018 17:00:00 22,9 15,7 9 5 ESE 1019,7 20 -
21.10.2018 16:00:00 23,1 15,2 5 3 E 1019,9 20 0,0
21.10.2018 15:00:00 23,4 16,0 8 4 ENE 1020,2 20 0,0
21.10.2018 14:00:00 24,1 16,1 9 5 E 1021,0 20 -
21.10.2018 13:00:00 24,0 15,5 8 4 E 1021,9 20 0,0
21.10.2018 12:00:00 22,3 14,7 5 3 NE 1022,2 20 0,0
21.10.2018 11:00:00 20,2 14,3 4 2 SW 1022,7 20 -
21.10.2018 10:00:00 18,7 14,4 8 4 W 1022,9 20 0,0
21.10.2018 09:00:00 18,1 14,0 4 2 NW 1022,5 20 0,0
21.10.2018 08:00:00 18,1 13,6 5 3 N 1022,1 20 -
21.10.2018 07:00:00 18,6 13,7 5 3 NNE 1022,3 20 0,0
21.10.2018 06:00:00 19,6 13,5 9 5 NNE 1022,0 20 0,0
21.10.2018 05:00:00 20,0 14,1 9 5 NNE 1021,8 20 -
21.10.2018 04:00:00 20,3 14,4 9 5 NNE 1022,2 20 0,0
21.10.2018 03:00:00 20,3 14,4 11 6 NNE 1022,2 20 0,0
21.10.2018 02:00:00 20,3 14,9 11 6 NNE 1022,7 20 -
21.10.2018 01:00:00 20,3 14,9 9 5 N 1022,5 20 0,0
21.10.2018 00:00:00 20,4 15,0 9 5 NNE 1022,8 20 0,0
20.10.2018 23:00:00 20,1 15,3 11 6 NNE 1022,6 20 -
20.10.2018 22:00:00 20,1 16,1 8 4 N 1022,2 20 0,0
20.10.2018 21:00:00 20,4 16,4 13 7 NNE 1022,0 20 0,0
20.10.2018 20:00:00 20,9 16,5 15 8 NNE 1021,6 20 -
20.10.2018 19:00:00 21,5 17,3 8 4 NNE 1021,2 20 0,0
20.10.2018 18:00:00 22,4 16,7 8 4 NE 1020,8 20 0,0
20.10.2018 17:00:00 22,7 16,5 11 6 NE 1020,8 20 -
20.10.2018 16:00:00 22,3 16,1 8 4 NE 1020,9 20 0,0
20.10.2018 15:00:00 22,3 16,1 13 7 NNE 1021,5 20 0,0
20.10.2018 14:00:00 21,3 16,7 13 7 NNE 1021,6 20 -
20.10.2018 13:00:00 20,8 16,4 9 5 NNE 1022,2 20 0,0
20.10.2018 12:00:00 20,6 16,2 9 5 N 1021,5 20 0,0
20.10.2018 11:00:00 19,8 16,2 8 4 N 1020,9 20 -
20.10.2018 10:00:00 19,4 16,1 13 7 NNE 1020,1 20 0,0
20.10.2018 09:00:00 18,5 16,1 13 7 NNE 1019,8 20 0,2
20.10.2018 08:00:00 18,4 16,0 4 2 N 1019,1 19 -
20.10.2018 07:00:00 18,3 15,9 4 2 NW 1019,2 20 0,0
20.10.2018 06:00:00 18,5 15,9 5 3 N 1018,9 20 0,0
20.10.2018 05:00:00 18,4 16,0 8 4 N 1018,5 20 -
20.10.2018 04:00:00 18,3 16,1 11 6 NNE 1017,9 20 0,0
20.10.2018 03:00:00 18,1 16,1 8 4 NNE 1018,3 20 0,0
20.10.2018 02:00:00 17,9 16,1 5 3 N 1018,1 20 -
20.10.2018 01:00:00 18,0 16,0 5 3 N 1017,7 20 0,0
20.10.2018 00:00:00 17,5 16,2 4 2 NNW 1017,8 20 0,0
19.10.2018 23:00:00 17,8 16,5 4 2 N 1017,1 20 -
19.10.2018 22:00:00 18,4 16,7 9 5 NNE 1016,5 20 0,0
19.10.2018 21:00:00 18,5 17,3 4 2 NNW 1015,7 19 0,4
19.10.2018 20:00:00 19,0 17,7 8 4 E 1015,4 18 -
19.10.2018 19:00:00 19,2 17,9 8 4 NE 1014,1 20 0,0
19.10.2018 18:00:00 19,3 17,6 5 3 NNE 1013,0 20 0,2
19.10.2018 17:00:00 19,3 17,6 11 6 NNE 1013,0 11 -
19.10.2018 16:00:00 19,7 18,4 9 5 NNE 1012,8 20 0,0
19.10.2018 15:00:00 20,6 18,7 5 3 E 1012,7 20 0,0
19.10.2018 14:00:00 20,1 19,1 13 7 E 1012,7 7 -
19.10.2018 13:00:00 - - - - - - - -
19.10.2018 12:00:00 - - - - - - - -
19.10.2018 11:00:00 - - - - - - - -
19.10.2018 10:00:00 - - - - - - - -
19.10.2018 09:00:00 - - - - - - - -
19.10.2018 08:00:00 - - - - - - - -
19.10.2018 07:00:00 - - - - - - - -
19.10.2018 06:00:00 - - - - - - - -
19.10.2018 05:00:00 - - - - - - - -
19.10.2018 04:00:00 - - - - - - - -
19.10.2018 03:00:00 - - - - - - - -
19.10.2018 02:00:00 17,0 16,0 5 3 NW 1009,8 3,1 -
19.10.2018 01:00:00 17,3 16,3 16 9 NNE 1010,8 4,8 6,0
19.10.2018 00:00:00 17,5 16,9 4 2 N 1010,8 2,9 4,0
18.10.2018 23:00:00 17,4 16,8 5 3 NW 1010,1 8 -
18.10.2018 22:00:00 - - - - - - - -
18.10.2018 21:00:00 18,5 17,2 4 2 NE 1009,3 0,6 11,0
18.10.2018 20:00:00 - - - - - - - -
18.10.2018 19:00:00 - - - - - - - -
18.10.2018 18:00:00 17,5 16,5 9 5 N 1007,2 2,8 31,0
18.10.2018 17:00:00 18,5 16,8 18 10 NNE 1008,1 1,4 -
18.10.2018 16:00:00 21,8 15,4 13 7 NNE 1007,8 20 0,0
18.10.2018 15:00:00 21,2 14,8 13 7 NNE 1008,4 19 0,0
18.10.2018 14:00:00 21,2 14,8 8 4 NE 1009,4 35 -
18.10.2018 13:00:00 21,0 15,8 8 4 NE 1010,1 19 0,0
18.10.2018 12:00:00 19,1 16,1 5 3 N 1010,6 20 0,8
18.10.2018 11:00:00 18,5 16,1 5 3 N 1010,7 18 -
18.10.2018 10:00:00 17,8 15,4 5 3 NNW 1010,8 20 0,0
18.10.2018 09:00:00 16,8 14,6 8 4 NNW 1010,7 20 0,0
18.10.2018 08:00:00 16,9 14,5 5 3 WNW 1010,8 20 -
18.10.2018 07:00:00 17,0 14,1 5 3 NW 1011,2 20 0,0

tt = Température de l'air
td = dewpoint
ff = Vitesse du vent
dd = Direction du vent
ppp = reduced air pressure
vv = visibility
rr = Quantités de précipitations

stations d'obs. à proximité